GFSNIL_sfc_thetae_009.txt.gz
Theta_e
303 303 301 301 299 295 295 296 296 295 295 295 295 295 295 294 293 292 291 290 290 292
302 299 298 295 294 295 295 295 295 295 294 294 295 295 294 293 292 291 291 291 291 292
297 295 294 294 294 293 293 294 294 294 294 294 294 294 292 291 291 290 290 291 289 290
294 293 293 294 293 293 294 294 294 294 294 293 292 292 291 290 290 289 288 288 288 288
293 292 291 291 293 293 292 294 293 293 293 292 292 291 289 289 288 288 287 287 286 287
291 291 291 291 291 292 292 292 292 292 291 291 290 289 288 288 287 286 286 286 286 286
290 290 290 291 290 291 292 290 290 290 290 290 288 288 287 287 286 285 285 285 284 284
292 292 293 292 291 291 290 290 289 288 287 286 286 287 285 284 283 282 282 283 283 284
294 293 293 291 291 290 288 288 286 285 284 284 286 287 288 285 282 281 281 280 282 282
294 293 293 291 289 287 285 284 283 283 283 282 282 287 286 286 282 281 280 280 280 281
294 292 288 288 286 284 282 282 281 281 281 281 282 285 286 285 282 281 281 281 281 281
288 287 287 285 282 282 281 280 280 281 280 280 280 284 285 284 282 281 281 282 283 283
287 286 284 282 281 281 280 280 280 281 280 282 280 283 284 284 282 280 280 281 282 283
286 284 283 281 280 279 279 279 275 274 278 279 280 279 283 283 281 281 280 280 281 282

GFSNIL_sfc_thetae_015.txt.gz
Theta_e
300 298 299 298 298 296 293 291 292 293 295 296 296 296 295 295 294 295 294 292 292 291
296 296 296 294 292 291 292 293 293 294 295 296 296 297 296 294 293 293 292 291 290 288
296 294 293 291 290 291 292 293 294 295 296 296 296 295 294 292 292 291 290 290 288 288
293 291 290 289 290 291 293 294 294 294 295 295 293 293 292 291 290 289 288 288 287 287
291 290 289 289 290 291 293 294 293 292 292 293 292 291 289 288 287 286 285 285 285 285
289 288 287 288 290 292 292 292 291 290 290 289 289 288 287 286 285 285 284 284 284 284
288 288 288 290 289 290 291 290 289 289 289 288 286 285 285 284 283 282 282 282 282 282
292 291 292 292 292 292 292 292 288 286 284 284 284 284 283 283 282 281 281 281 281 281
295 294 293 293 290 291 291 288 285 284 283 282 283 285 286 285 281 281 281 280 281 281
294 292 291 291 291 288 284 283 282 281 281 281 281 284 285 285 282 280 280 280 280 280
291 291 288 285 283 282 282 281 280 280 280 280 281 283 284 284 281 279 280 280 280 281
286 285 283 281 280 279 279 279 279 280 280 279 279 282 282 282 277 278 278 280 280 280
284 283 281 280 279 279 279 279 280 279 279 279 277 280 282 281 278 278 278 279 281 282
284 282 280 280 279 278 278 278 273 272 275 276 278 276 281 282 280 279 279 279 280 281

GFSNIL_sfc_thetae_018.txt.gz
Theta_e
297 296 296 296 296 294 292 290 292 293 294 294 294 294 295 296 295 296 295 293 292 290
294 294 295 294 292 291 290 293 292 293 293 293 295 296 296 294 293 293 292 292 292 292
294 293 292 291 290 290 291 292 292 292 293 293 294 295 294 293 293 292 292 291 290 289
293 293 290 289 290 290 292 292 293 293 293 293 293 292 292 291 291 290 289 288 287 286
291 290 288 288 289 291 292 293 292 293 292 291 290 290 288 287 287 286 285 285 284 284
290 288 286 288 290 291 290 291 292 291 290 290 289 288 286 286 285 284 284 283 283 283
288 289 290 290 291 292 292 292 292 291 289 287 285 285 284 284 283 282 282 282 282 281
290 293 293 293 292 292 292 291 288 286 284 284 283 283 283 282 282 281 281 282 282 281
295 294 291 291 291 290 290 290 285 283 282 281 283 285 285 285 282 282 282 280 280 281
293 292 292 292 290 288 283 282 281 281 281 281 281 284 284 284 281 281 281 280 280 280
290 289 287 284 282 281 280 280 279 280 280 280 280 283 283 283 280 279 279 279 280 279
284 283 282 281 280 280 279 279 279 280 280 279 278 281 282 282 278 277 278 280 280 280
283 282 280 279 279 279 278 279 280 279 278 278 277 280 281 281 278 276 279 280 281 281
282 280 279 278 278 278 277 278 274 272 274 276 277 275 281 281 280 279 279 279 279 280

GFSNIL_sfc_thetae_021.txt.gz
Theta_e
304 303 303 302 302 301 300 300 300 300 300 300 301 301 301 297 297 294 292 291 290 289
303 302 301 301 300 299 299 299 300 300 300 300 300 298 297 295 293 294 294 293 292 292
301 301 300 299 297 297 298 299 299 299 299 298 298 298 297 296 295 294 294 294 293 293
300 299 297 295 296 296 298 299 298 296 296 295 294 295 296 295 295 294 293 293 292 291
299 296 294 294 295 297 296 296 296 296 294 293 293 294 293 291 291 290 289 289 289 289
296 294 294 295 295 296 295 294 294 293 292 293 292 290 289 289 288 288 288 288 287 287
294 295 295 294 294 294 294 294 294 293 291 289 288 288 288 288 288 287 287 287 286 286
295 296 295 295 295 295 295 294 294 290 287 287 286 286 286 286 286 286 285 286 286 286
295 295 295 294 295 295 295 293 289 287 286 286 285 284 285 285 285 284 283 283 284 284
293 293 293 291 289 287 287 287 286 285 285 285 285 283 283 283 283 283 283 283 283 283
289 288 288 287 287 286 286 285 284 284 284 284 283 282 282 282 284 283 283 283 283 283
287 287 286 285 285 285 285 284 284 284 283 282 282 281 281 282 283 282 282 283 282 282
286 286 285 284 284 284 284 283 283 282 282 281 281 281 281 282 282 281 281 282 283 283
286 285 284 284 284 283 283 282 281 280 281 281 281 281 281 281 281 280 281 281 281 283

GFSNIL_sfc_thetae_024.txt.gz
Theta_e
309 308 307 306 305 304 304 304 306 306 305 304 304 302 301 302 297 294 293 292 291 291
308 307 306 305 304 303 304 303 304 304 303 303 301 301 301 299 298 297 297 297 296 295
307 307 305 304 301 302 303 303 301 301 299 297 297 296 298 297 297 296 296 296 295 294
306 305 303 301 301 301 301 299 297 297 295 294 294 295 295 295 295 294 294 294 293 293
304 303 301 300 300 300 298 298 296 294 294 295 295 295 295 294 293 292 292 292 292 291
302 300 299 299 298 297 297 297 297 297 296 295 294 293 293 292 292 292 291 291 290 290
299 297 297 298 297 298 298 297 297 296 295 295 293 292 291 290 290 290 290 290 290 289
300 297 296 295 295 297 297 296 296 294 293 292 291 289 288 288 288 288 288 288 288 288
297 296 296 297 295 294 293 292 292 291 291 290 289 285 284 285 286 286 286 286 287 287
294 294 293 293 292 292 291 291 290 290 290 289 289 284 283 283 285 286 286 287 286 286
293 292 292 291 291 291 290 290 289 289 288 288 287 284 283 282 285 286 286 286 286 285
292 291 290 290 289 289 289 288 288 287 287 286 286 284 282 282 284 284 284 283 284 284
291 290 289 289 288 288 288 287 287 285 286 284 284 283 282 282 283 281 282 283 284 284
291 290 289 288 288 287 287 286 285 284 283 283 283 283 282 281 281 281 280 281 282 284

GFSNIL_sfc_thetae_027.txt.gz
Theta_e
311 310 309 309 307 305 304 303 305 306 305 304 302 301 301 300 299 298 295 294 294 295
311 309 308 308 306 304 303 303 305 302 298 297 298 298 297 297 297 298 298 297 296 295
308 308 307 306 303 303 303 303 301 298 297 297 296 296 297 296 296 295 295 296 296 296
305 305 305 303 302 302 301 299 299 299 297 296 297 297 297 297 296 294 294 294 294 293
303 303 302 301 299 300 300 300 299 298 298 297 297 296 295 294 293 293 292 293 293 291
301 301 300 300 300 299 299 298 298 297 297 296 295 294 294 293 292 292 291 291 290 290
300 300 299 299 295 298 298 297 297 297 295 294 293 292 292 292 290 290 290 290 290 289
298 298 299 298 297 297 297 295 294 293 293 293 292 290 290 289 288 287 287 288 289 289
296 295 295 296 295 294 293 293 293 292 291 291 290 285 284 285 286 285 286 286 287 289
295 294 294 294 293 293 292 292 291 291 290 290 290 284 284 284 285 284 285 286 287 286
294 293 293 292 291 291 291 290 290 289 289 289 288 285 283 283 284 285 285 286 285 285
293 292 291 291 290 290 290 289 289 288 288 286 286 286 283 283 283 283 283 283 284 284
292 291 291 290 289 290 289 288 288 287 286 285 284 285 283 283 283 281 282 283 283 283
292 291 291 290 290 289 288 288 287 285 286 285 285 285 284 282 282 282 282 281 282 284

GFSNIL_sfc_thetae_030.txt.gz
Theta_e
311 309 307 307 305 303 301 300 301 301 299 298 299 298 298 297 297 297 296 294 294 294
308 307 306 306 304 302 301 302 300 298 297 297 296 297 297 296 295 295 294 294 295 295
303 304 303 303 301 300 300 300 298 298 297 296 295 295 295 295 295 295 293 293 293 293
302 302 302 301 299 299 299 299 298 298 296 296 297 296 294 293 293 293 293 292 292 291
301 301 300 299 299 299 298 298 298 297 297 297 295 295 293 292 292 291 290 290 289 289
299 299 299 298 298 298 297 297 297 296 295 295 295 293 291 290 290 289 287 287 287 287
298 297 297 297 297 296 296 296 295 294 293 292 291 290 290 289 287 286 286 286 286 286
297 296 296 296 296 295 294 294 293 292 291 290 290 287 285 285 284 284 283 284 285 286
296 296 296 295 294 294 293 292 291 289 289 289 289 285 285 284 282 283 282 281 283 285
296 295 294 294 293 291 291 290 288 288 288 287 287 285 285 284 282 281 281 282 282 283
294 293 293 293 291 290 288 287 286 286 287 285 286 287 284 284 281 280 281 281 281 281
293 292 292 290 290 288 287 286 286 286 285 283 283 285 286 283 280 280 279 280 281 281
293 292 291 290 288 287 287 286 286 284 284 285 282 286 285 284 281 277 279 279 281 282
294 292 291 289 288 287 285 284 283 283 283 283 284 282 285 283 279 279 278 278 278 280

GFSNIL_sfc_thetae_033.txt.gz
Theta_e
303 302 302 301 300 298 297 296 297 296 296 295 295 295 294 293 294 292 292 291 294 294
299 299 298 298 297 296 297 298 296 295 295 294 294 293 293 292 291 291 291 291 291 291
297 297 297 296 295 296 295 296 296 295 294 293 293 294 292 291 291 291 290 290 289 289
296 297 297 297 296 296 295 294 294 295 296 296 296 296 293 292 291 291 290 289 289 288
295 296 296 295 295 295 294 295 295 297 296 295 294 294 293 290 289 287 285 285 284 285
294 294 294 294 294 294 294 294 293 294 294 293 292 290 288 287 286 285 284 284 284 283
293 293 293 293 293 293 294 293 292 291 291 290 288 287 286 285 283 283 283 283 283 283
293 293 292 292 292 292 291 290 290 289 288 287 286 285 283 282 281 281 281 281 282 282
293 292 292 291 290 290 289 290 288 287 286 284 285 286 285 283 280 280 280 279 280 281
293 293 291 291 291 289 287 285 286 285 284 283 282 286 285 285 280 279 278 278 279 279
292 292 292 292 290 287 285 284 284 283 283 282 284 286 286 286 280 279 279 279 279 278
293 292 292 290 287 285 285 283 283 283 282 281 281 285 286 284 279 279 279 280 279 279
293 292 289 290 287 285 284 284 283 282 282 284 280 284 285 282 275 275 278 278 279 280
291 291 291 287 285 285 282 281 280 279 280 281 282 280 283 282 279 277 277 276 277 278

GFSNIL_sfc_thetae_039.txt.gz
Theta_e
297 296 296 296 295 295 295 295 295 294 293 293 293 292 292 290 289 289 288 287 288 289
295 295 295 295 294 293 294 296 294 293 292 292 292 292 292 289 288 288 288 288 289 290
294 295 295 294 293 293 293 293 293 292 291 291 291 291 291 289 289 288 287 288 286 285
293 294 294 293 293 293 292 292 291 292 292 292 290 290 289 288 286 284 283 282 282 283
292 292 293 293 293 293 291 291 292 291 291 291 289 288 286 284 283 282 281 281 281 282
291 290 291 292 292 292 291 292 291 292 292 289 288 286 284 283 282 281 281 281 280 280
290 290 290 290 291 291 291 291 291 290 290 289 286 284 283 282 281 281 281 281 280 280
290 290 290 290 290 290 291 290 290 291 288 286 285 284 282 281 281 280 280 280 280 280
290 290 290 289 289 288 288 289 291 287 286 285 284 286 286 284 280 281 280 279 279 279
290 289 289 289 289 287 287 287 286 285 285 282 282 286 286 286 282 280 279 278 278 279
289 289 289 288 287 284 285 284 284 282 282 281 282 285 285 283 278 278 278 278 278 278
289 289 288 288 290 289 288 286 282 282 281 280 280 283 283 280 277 277 276 278 278 277
289 288 287 288 288 285 281 282 282 282 281 282 278 281 281 280 274 268 275 276 277 278
288 287 287 286 282 281 281 282 280 278 279 279 279 277 280 280 273 273 275 275 275 276

GFSNIL_sfc_thetae_045.txt.gz
Theta_e
303 303 303 303 303 303 303 303 305 303 302 301 301 300 300 299 299 299 298 297 297 296
303 302 302 303 303 303 303 302 302 302 301 301 301 300 300 299 298 298 297 296 295 295
300 300 301 302 301 301 301 301 300 300 300 299 299 299 299 298 297 296 295 294 291 290
299 299 299 299 299 299 299 300 299 299 298 297 298 298 297 295 294 291 290 290 289 288
297 298 297 297 297 298 298 299 299 299 297 297 296 296 293 292 290 289 287 288 288 287
296 296 296 296 296 297 296 296 297 296 296 295 294 291 290 289 288 287 287 287 286 286
295 295 295 295 295 295 295 295 295 295 294 294 291 289 288 288 287 286 286 286 286 286
295 295 295 295 295 295 294 294 294 293 291 289 289 288 288 287 287 286 286 286 285 285
295 294 294 294 294 294 293 292 292 290 289 289 289 286 286 287 287 285 283 282 282 282
293 292 292 293 293 292 292 291 290 290 289 288 287 285 285 283 284 283 282 281 280 280
291 291 292 292 292 292 292 292 291 290 287 286 286 284 284 282 283 282 281 280 280 280
290 291 291 290 290 291 290 289 288 287 286 285 284 282 282 282 282 281 280 280 280 280
291 290 289 289 289 290 288 286 287 285 285 283 284 281 281 282 282 280 280 280 280 279
291 290 290 289 288 288 286 286 285 284 284 284 283 282 280 281 282 280 279 279 278 279

GFSNIL_sfc_thetae_048.txt.gz
Theta_e
307 309 307 306 306 305 304 305 306 306 306 306 305 305 304 302 301 301 300 299 297 296
306 306 305 306 306 306 306 305 305 305 305 305 304 304 303 301 300 300 300 298 298 296
305 305 305 305 304 303 303 303 303 303 303 302 302 302 301 300 299 298 298 297 295 294
304 302 301 301 300 300 300 299 299 299 300 300 300 300 300 299 297 295 295 295 293 292
300 300 299 298 299 299 298 299 298 299 299 299 299 299 297 296 295 293 292 292 292 291
298 298 298 298 298 298 298 298 298 298 297 297 297 296 295 293 292 291 292 291 291 290
297 298 298 297 297 297 298 297 297 297 296 294 293 292 291 292 291 291 291 291 291 289
298 298 297 297 297 297 297 297 296 295 294 294 293 292 292 292 291 291 290 290 288 288
296 296 297 296 296 296 296 296 296 294 294 293 292 286 286 286 290 289 288 286 286 286
294 294 295 295 295 295 295 294 293 293 293 292 292 286 285 284 288 287 286 286 285 284
293 293 294 295 294 294 293 293 291 290 292 292 290 285 284 283 287 287 286 285 284 284
293 293 294 293 294 294 291 291 291 290 291 290 289 283 283 283 286 286 285 285 285 283
293 293 293 293 293 292 291 290 291 290 290 287 288 283 282 283 286 283 283 284 284 282
292 291 291 289 291 291 290 288 288 287 288 288 288 287 282 282 284 283 282 282 282 283

GFSNIL_sfc_thetae_051.txt.gz
Theta_e
309 310 309 308 307 306 305 306 307 306 305 305 305 306 304 304 303 302 302 300 299 298
308 307 306 307 307 306 306 304 304 304 303 303 302 302 303 302 301 301 300 299 299 297
305 307 307 306 304 303 302 301 300 300 300 300 300 301 300 301 300 299 299 298 297 296
305 304 303 302 301 300 301 300 299 299 299 299 299 299 299 299 298 296 296 296 295 294
302 302 301 300 300 300 299 300 299 299 298 298 298 298 297 296 296 295 293 293 293 292
300 299 299 299 299 299 299 299 298 298 298 297 298 297 296 295 294 294 293 292 291 291
298 299 299 299 298 299 299 298 298 298 297 295 294 295 294 293 292 292 292 292 292 290
298 298 298 298 298 298 298 298 297 297 296 294 294 293 292 293 292 291 291 291 290 289
296 296 296 297 297 297 297 297 297 295 294 294 293 287 287 287 290 290 289 288 288 288
294 294 295 295 296 296 296 296 295 294 293 293 294 287 287 285 288 288 288 288 287 286
294 293 294 295 295 296 296 295 293 293 293 291 292 287 285 284 287 288 288 287 287 286
293 293 294 294 295 295 294 293 291 292 292 292 290 285 284 284 287 287 286 286 286 286
294 293 293 293 293 293 293 292 291 290 291 287 290 285 284 284 286 286 283 285 285 283
294 293 293 292 292 292 292 291 290 288 289 289 289 288 284 283 284 284 283 283 283 284

GFSNIL_sfc_thetae_054.txt.gz
Theta_e
309 309 308 306 305 304 304 304 304 303 302 301 301 300 300 300 299 298 296 296 295 295
308 306 305 306 305 304 303 301 300 299 299 298 298 298 298 296 297 296 295 294 295 294
304 305 306 304 303 301 300 299 298 298 297 297 297 297 296 295 296 295 295 295 293 292
305 304 302 301 300 299 298 298 297 297 297 296 296 296 295 295 294 293 293 291 291 291
305 301 300 299 298 299 297 298 297 297 297 296 296 296 294 293 293 292 290 290 291 290
300 299 298 298 298 298 297 297 296 296 296 296 294 293 293 292 292 290 291 291 290 289
297 297 298 298 297 297 297 296 296 296 296 295 292 293 292 292 291 289 289 290 289 289
297 297 297 297 297 297 297 296 296 295 294 294 293 293 290 290 288 289 289 289 289 287
296 295 295 296 296 296 296 295 295 294 293 292 293 289 288 287 286 287 286 285 285 285
294 294 295 295 294 294 294 294 294 292 291 291 291 288 287 285 285 284 284 284 283 284
294 293 294 294 294 294 294 292 292 289 290 290 290 288 286 285 283 283 284 283 283 282
293 292 293 292 293 292 291 291 290 290 289 288 287 287 286 284 282 283 282 283 283 283
293 293 292 292 291 291 290 290 290 288 288 288 287 286 285 284 281 280 281 282 282 281
293 292 292 292 291 290 289 289 286 285 285 286 286 286 286 285 281 280 281 281 280 280

GFSNIL_sfc_thetae_057.txt.gz
Theta_e
304 303 304 303 302 301 300 300 297 295 295 295 295 294 294 293 293 295 293 292 292 292
302 302 303 303 303 302 298 297 295 294 294 294 294 294 293 292 292 293 292 292 292 292
301 302 304 302 301 298 295 295 294 293 293 293 293 293 292 292 292 291 290 291 289 290
302 303 302 299 296 294 294 294 294 294 294 294 293 293 292 291 291 290 289 289 289 289
304 302 298 296 294 294 293 294 294 294 294 294 293 292 291 290 290 289 287 288 288 289
301 296 294 293 294 294 293 293 293 294 294 294 292 290 290 290 290 288 288 288 287 287
295 295 294 294 294 294 294 294 294 294 294 293 290 291 291 290 288 287 288 288 287 287
293 293 292 293 293 294 294 294 294 293 292 292 291 292 289 289 288 286 286 286 286 285
293 292 292 292 293 293 293 293 293 291 291 290 291 289 288 286 285 287 285 283 283 282
293 292 292 293 293 292 292 291 290 290 289 289 289 289 288 286 283 284 284 282 281 282
293 292 292 292 292 291 290 289 288 288 288 287 289 289 288 286 283 281 282 281 280 280
292 292 292 290 290 289 288 288 287 287 286 286 285 288 287 285 280 281 281 282 281 281
292 292 291 290 289 289 288 288 288 287 286 287 284 287 287 285 279 277 280 280 281 281
292 290 290 288 288 287 287 285 283 283 283 283 284 283 287 286 281 279 279 280 279 279

GFSNIL_sfc_thetae_063.txt.gz
Theta_e
303 302 301 300 299 300 301 298 299 299 296 294 292 291 290 289 289 290 289 288 288 289
303 302 302 303 303 301 301 301 298 295 293 292 291 291 290 289 289 288 289 288 287 287
302 302 303 304 302 302 300 297 295 293 292 292 291 291 292 290 289 288 287 288 287 286
302 302 302 301 300 299 297 295 294 293 291 291 291 292 290 289 289 288 287 287 286 286
301 300 300 301 299 296 292 294 292 292 292 292 292 291 289 288 289 287 286 286 286 286
303 300 298 296 295 292 292 292 291 291 291 291 291 291 289 288 288 288 287 286 285 286
299 298 294 292 292 292 292 291 292 291 292 291 291 291 290 290 288 287 286 286 286 285
296 293 291 292 290 290 293 291 291 291 291 291 290 290 289 288 287 286 284 284 285 285
291 291 291 291 290 291 290 291 290 289 289 289 290 290 290 288 285 284 284 283 284 286
292 291 291 292 291 289 288 289 288 287 287 287 287 289 290 289 284 283 283 282 282 282
290 291 291 290 289 288 288 287 286 286 286 285 286 289 290 289 284 282 282 284 282 280
291 290 290 288 288 287 286 286 285 285 285 284 284 287 288 287 282 281 281 282 282 281
291 289 288 288 287 286 284 285 283 283 283 285 283 286 287 287 282 282 281 280 282 284
290 289 288 287 286 285 283 282 281 281 281 282 282 282 286 287 286 282 281 281 281 281

GFSNIL_sfc_thetae_066.txt.gz
Theta_e
308 306 304 302 299 298 299 299 300 301 299 296 294 291 292 290 289 289 289 289 289 289
306 303 301 301 302 302 299 301 301 299 296 294 293 293 290 289 289 289 288 288 289 288
301 302 303 302 301 301 301 300 299 296 294 293 293 292 290 289 289 289 288 288 287 287
301 301 302 302 301 301 300 299 296 294 293 293 290 292 291 290 290 288 288 287 287 287
299 300 301 300 301 300 298 296 292 293 293 292 291 291 290 289 289 288 287 287 286 286
301 301 299 300 299 297 292 292 292 293 293 291 291 291 290 289 288 287 287 287 286 285
302 300 297 295 293 291 293 292 292 292 292 291 291 290 290 289 287 287 287 286 285 285
297 294 293 292 292 292 293 292 292 290 290 290 290 290 288 288 287 286 285 285 284 284
294 292 291 291 291 292 291 291 289 288 288 288 289 290 290 289 285 285 284 283 284 284
292 291 290 292 291 290 289 290 288 288 287 286 286 289 290 289 286 284 283 282 283 283
291 291 291 290 290 289 288 288 287 286 285 284 285 288 289 289 285 283 283 282 282 282
292 290 290 288 288 287 286 286 285 284 283 283 283 287 287 287 283 283 282 283 282 282
290 290 289 288 287 286 284 283 283 283 283 284 283 285 287 286 281 284 283 283 282 284
290 288 288 286 284 284 283 282 281 281 282 282 282 282 286 287 283 284 283 282 281 281

GFSNIL_sfc_thetae_069.txt.gz
Theta_e
319 315 315 314 313 311 310 308 306 306 303 300 299 298 298 298 300 300 300 300 300 299
317 315 315 314 313 311 308 305 306 306 300 299 298 299 300 300 299 300 300 299 299 297
318 318 315 312 308 307 306 306 306 301 299 298 299 300 299 299 299 298 299 297 297 296
316 314 311 309 306 306 306 302 301 300 300 299 299 299 298 298 298 297 297 296 295 295
308 308 308 306 306 306 302 304 300 299 299 298 298 298 298 297 297 296 295 295 295 294
306 305 304 304 303 302 301 302 300 299 297 298 298 297 297 297 296 296 295 295 295 294
304 304 302 301 300 297 296 297 296 297 298 297 297 296 296 296 296 295 295 295 294 294
300 297 296 295 296 295 297 297 296 296 296 296 296 295 296 295 295 295 294 295 294 293
295 294 294 294 293 295 296 295 295 295 295 294 293 290 290 291 294 294 293 293 293 293
293 293 293 293 295 294 294 295 295 294 294 293 294 289 289 289 292 293 293 293 292 291
293 292 292 295 294 294 294 294 294 294 293 293 292 288 288 288 292 292 292 292 291 290
293 292 295 294 294 294 293 293 293 292 292 291 291 288 287 288 291 290 290 290 291 290
293 294 293 293 293 293 292 291 292 291 291 290 290 289 287 288 290 289 288 289 289 286
293 292 292 291 291 291 291 290 290 288 290 290 289 290 288 287 289 289 288 287 286 286

GFSNIL_sfc_thetae_075.txt.gz
Theta_e
332 329 326 325 323 322 319 322 322 320 319 317 314 310 307 305 303 306 307 305 304 302
330 329 327 327 326 322 321 320 320 320 317 314 310 306 303 301 304 306 306 305 304 303
328 328 328 327 324 321 319 321 319 317 313 308 303 302 302 304 306 305 305 304 303 303
325 327 325 323 320 319 318 316 313 307 304 303 304 306 304 305 305 304 303 303 302 302
324 318 315 312 312 312 309 309 305 305 306 308 307 305 304 304 303 302 301 302 302 300
312 311 309 309 308 307 305 305 307 305 303 302 303 304 304 303 303 302 302 301 300 299
311 309 307 307 307 306 304 302 301 302 302 302 303 302 302 302 302 300 300 299 299 298
308 307 308 306 304 302 301 300 302 300 300 302 302 302 302 301 299 297 297 297 297 298
307 305 301 299 300 300 300 299 299 301 302 302 302 292 292 291 295 295 295 294 295 296
303 300 299 298 298 298 299 299 301 302 303 301 300 293 292 290 294 293 293 294 294 294
301 300 299 299 300 300 301 302 303 301 300 299 297 293 291 289 294 293 294 294 295 295
301 299 297 298 300 302 302 300 299 298 297 296 296 290 289 289 294 293 293 294 294 294
298 300 301 301 301 300 299 297 296 295 296 293 295 289 289 289 290 289 289 290 290 288
300 299 299 299 298 297 296 295 295 294 294 292 291 291 288 287 287 287 287 286 287 289

GFSNIL_sfc_thetae_078.txt.gz
Theta_e
330 327 327 325 321 319 319 317 317 318 317 316 313 308 306 305 304 303 302 302 300 299
329 329 326 324 323 322 321 319 319 317 315 313 308 306 305 302 301 302 303 303 301 300
328 329 328 325 323 322 320 319 316 315 309 306 305 303 302 301 302 302 303 302 301 300
329 327 325 323 321 319 315 312 307 306 305 304 303 304 302 302 303 303 302 301 300 299
325 324 322 317 314 311 308 307 306 305 305 305 306 307 304 302 302 301 301 300 300 299
319 318 315 313 311 309 307 306 306 305 305 304 304 303 302 302 302 301 300 299 297 297
314 312 310 308 307 306 306 305 305 304 303 303 303 303 303 302 300 298 297 297 296 295
307 307 307 306 305 305 304 303 302 302 302 303 302 302 300 299 296 293 293 294 295 294
307 305 305 304 303 301 300 300 301 301 301 300 301 291 292 293 292 292 292 291 292 292
303 301 300 300 300 299 298 298 298 299 299 300 299 292 292 290 291 291 290 290 290 291
301 300 299 298 298 297 298 297 298 300 299 297 296 293 291 289 290 289 290 291 291 290
299 298 298 298 299 299 300 300 298 298 296 294 291 289 288 289 289 290 288 289 288 288
301 299 298 298 300 301 300 299 297 294 294 291 288 288 287 287 285 283 283 285 286 286
298 298 300 300 299 297 295 294 289 288 288 289 288 286 287 286 283 281 281 281 282 283

GFSNIL_sfc_thetae_081.txt.gz
Theta_e
322 322 321 322 321 319 317 316 315 315 314 314 312 310 308 306 303 303 301 300 300 300
325 322 322 322 321 318 317 316 314 315 314 310 308 308 305 304 302 302 302 301 301 301
325 324 322 321 319 318 317 317 315 312 308 306 304 303 302 301 302 302 301 303 302 300
325 323 322 321 319 318 317 314 311 306 304 304 305 304 303 302 302 302 301 302 301 299
325 323 322 321 319 315 310 308 306 306 306 306 304 304 303 302 303 302 300 300 299 298
322 320 318 315 313 311 308 307 307 306 305 305 305 305 304 303 302 301 300 299 296 296
316 315 313 310 309 309 307 306 306 306 305 305 305 304 303 302 300 299 297 296 294 293
310 310 308 308 307 306 307 306 305 304 303 304 303 303 301 301 296 291 290 291 292 291
307 307 306 305 305 304 302 303 303 303 303 301 302 296 294 292 290 290 289 288 288 289
305 303 302 302 301 301 301 301 301 301 300 299 298 291 291 290 289 288 287 286 286 288
301 300 301 301 300 299 299 299 299 298 298 297 293 291 290 289 288 287 288 288 287 285
300 299 299 298 298 298 297 297 297 298 295 291 289 288 288 288 286 286 284 286 286 285
300 299 298 298 298 298 299 298 294 292 290 288 285 287 287 286 283 282 281 282 283 284
300 298 298 299 299 297 293 290 286 285 286 285 284 285 286 285 281 280 280 280 280 281

GFSNIL_sfc_thetae_084.txt.gz
Theta_e
321 319 320 320 321 319 319 319 320 318 315 313 312 311 309 305 304 303 303 301 301 300
323 321 319 320 321 321 321 320 316 317 314 311 309 307 306 304 303 303 302 301 302 301
323 322 321 320 320 320 319 317 315 315 311 306 305 305 304 303 302 303 302 302 301 302
323 323 322 320 320 319 317 316 315 312 308 306 306 306 306 304 303 302 301 302 302 301
322 323 321 320 319 317 315 314 311 309 307 306 306 306 304 303 302 301 301 302 301 301
321 320 319 320 318 317 313 310 309 308 307 306 305 305 304 304 303 302 302 301 300 299
320 320 320 317 317 315 312 309 308 309 307 306 306 305 305 304 302 302 301 299 297 295
315 317 315 313 313 310 309 308 308 306 306 306 306 305 304 303 301 298 295 293 291 290
308 309 309 308 307 307 306 306 305 304 304 303 304 296 297 297 296 293 290 288 287 289
306 304 304 304 304 303 303 303 303 303 302 301 300 294 293 290 290 289 287 285 287 288
304 302 302 302 302 301 302 301 301 300 300 299 295 290 290 289 286 287 288 287 285 284
303 301 301 300 299 300 300 300 299 299 296 292 290 289 289 288 287 285 284 284 284 283
301 301 299 299 299 299 298 296 294 291 290 288 287 288 287 286 283 281 281 282 283 283
301 300 300 299 298 297 293 289 288 286 286 286 286 286 286 284 281 281 280 280 280 280

GFSNIL_sfc_thetae_087.txt.gz
Theta_e
312 313 315 315 316 317 317 318 318 317 318 316 313 311 308 307 306 305 304 302 302 301
313 314 315 317 318 318 319 319 318 318 317 314 312 310 307 305 305 304 304 303 302 301
314 316 317 318 318 319 320 319 317 315 315 312 309 308 307 306 305 304 303 303 301 302
317 319 320 320 319 319 319 316 315 314 314 310 308 307 307 305 305 304 303 302 302 301
319 320 320 320 320 319 317 316 315 313 311 310 308 307 307 304 304 304 302 302 301 301
316 319 319 320 317 316 317 315 313 313 311 309 308 307 307 306 305 304 303 302 301 301
316 318 319 319 316 317 316 316 314 312 310 309 308 307 305 305 303 303 302 302 301 300
317 317 316 316 317 317 318 317 313 311 309 309 307 306 305 305 303 302 300 298 297 296
312 314 314 313 313 310 309 309 310 309 307 305 306 297 297 300 300 298 295 291 290 290
309 307 306 307 307 306 306 306 306 305 305 304 304 298 296 293 295 293 290 288 288 288
306 305 305 304 304 303 304 303 303 302 303 300 299 293 292 290 290 288 288 287 287 285
304 303 302 301 300 301 301 300 300 300 297 295 291 289 288 289 287 286 285 285 285 284
302 302 300 300 300 301 300 297 294 291 291 289 288 288 288 287 285 283 282 282 282 282
301 300 300 299 298 294 292 289 286 285 285 286 286 285 286 285 283 282 281 280 280 280

GFSNIL_sfc_thetae_090.txt.gz
Theta_e
309 309 310 310 311 312 314 314 314 315 317 316 315 314 312 312 310 309 308 305 303 302
309 309 309 310 312 314 314 316 314 314 315 316 315 314 312 311 308 307 306 304 304 303
309 310 311 310 312 314 315 315 315 314 316 315 312 310 310 309 308 307 306 306 304 304
310 311 311 312 313 315 315 316 316 316 315 313 310 309 309 307 307 306 306 305 305 304
312 312 312 313 314 315 315 316 316 316 315 315 311 309 309 308 308 306 305 305 304 304
313 314 314 315 316 317 317 317 315 317 316 315 313 311 311 312 309 307 307 306 305 304
313 314 315 317 317 318 317 318 316 315 315 314 312 311 310 309 308 307 307 305 304 303
312 313 313 315 315 315 317 318 318 317 315 312 311 309 308 307 306 305 303 301 300 299
312 312 311 313 314 316 317 316 316 311 311 309 309 301 298 303 304 303 299 295 293 292
309 311 312 312 312 312 312 310 309 309 309 308 308 296 297 296 301 299 294 290 289 289
308 307 307 308 308 305 305 305 303 303 302 300 296 292 292 291 292 290 289 289 288 285
306 304 303 303 301 302 301 300 298 297 295 292 290 289 289 289 288 286 285 285 285 284
303 302 300 300 300 300 298 294 292 290 289 288 287 288 287 287 284 282 282 282 282 282
301 300 299 296 295 292 289 287 285 283 284 284 285 285 286 286 283 282 282 280 279 280